Home > Weather > Sault Ste. Marie > Past weeks

Flag for Canada Past Weather in Sault Ste. Marie, Ontario, Canada — Yesterday and Last 2 Weeks

Now
70 °F

Light rain. Mostly cloudy.


Feels Like: 70 °F
Forecast: N/A
Wind: 3 mph from South

Location: Sault Ste Marie

Current Time: Aug 24, 2016 at 5:47:57 PM

Latest Report: Aug 24, 2016 at 5:00 PM


Visibility: 8 mi

Pressure: 29.83 "Hg

Humidity: 94%

Dew Point: 68 °F

Location of Sault Ste. MarieLocation

Past Weather in Sault Ste. Marie — Graph

°F

Sault Ste. Marie Temperature Yesterday

Maximum temperature yesterday: 81 °F (at 3:00 PM)
Minimum temperature yesterday: 57 °F (at 12:00 AM)
Average temperature yesterday: 71 °F

High & Low Weather Summary for the Past Weeks

 TemperatureHumidityPressure
High84 °F (Aug 9, 5:00 PM)100% (Aug 11, 5:00 AM)30.15 "Hg (Aug 11, 5:00 AM)
Low48 °F (Aug 22, 6:00 AM)38% (Aug 22, 1:00 PM)29.36 "Hg (Aug 20, 11:00 PM)
Average68 °F81%29.92 "Hg
* Reported Aug 9 4:00 PM — Aug 24 4:00 PM, Sault Ste. Marie, Weather by CustomWeather, © 2016

Note: Actual official high and low records may vary slightly from our data, if they occured in-between our weather recording intervals... More about our weather records

Advertising

Sault Ste. Marie Weather History for the Previous 24 Hours

Scroll right to see more
 ConditionsComfort  
Time TempWeatherWind HumidityBarometerVisibility
4:00 PM
Wed, Aug 24
68 °FLight rain. Fog.3 mph94%29.83 "Hg6 mi
3:00 PM66 °FLight rain. More clouds than sun.5 mph100%29.85 "Hg2 mi
2:00 PM64 °FLight rain. Fog.7 mph100%29.87 "Hg5 mi
1:00 PM64 °FRain. Fog.9 mph100%29.88 "Hg2 mi
12:00 PM64 °FLight rain. Fog.9 mph94%29.91 "Hg2 mi
11:00 AM64 °FLight rain. Cloudy.7 mph94%29.94 "Hg6 mi
10:00 AM64 °FLight rain. Mostly cloudy.7 mph94%29.95 "Hg12 mi
9:58 AM64 °FLight rain. Mostly cloudy.8 mph94%29.95 "Hg13 mi
9:00 AM64 °FMostly cloudy.8 mph88%29.97 "Hg15 mi
8:00 AM63 °FCloudy.6 mph94%30.01 "Hg12 mi
7:00 AM63 °FPartly cloudy.7 mph88%30.01 "Hg15 mi
6:00 AM63 °FPassing clouds.3 mph88%30.03 "Hg15 mi
5:00 AM59 °FPartly cloudy.5 mph94%30.04 "Hg15 mi
4:00 AM57 °FPassing clouds.3 mph94%30.03 "Hg15 mi
3:00 AM59 °FPassing clouds.3 mph94%30.03 "Hg15 mi
2:00 AM59 °FClear.2 mph94%30.06 "Hg15 mi
1:00 AM59 °FClear.5 mph94%30.06 "Hg15 mi
12:00 AM59 °FPassing clouds.3 mph94%30.06 "Hg15 mi
11:00 PM
Tue, Aug 23
63 °FPassing clouds.2 mph83%30.08 "Hg15 mi
10:00 PM70 °FPassing clouds.5 mph64%30.09 "Hg15 mi
9:00 PM72 °FScattered clouds.6 mph61%30.08 "Hg15 mi
8:00 PM75 °FScattered clouds.10 mph57%30.08 "Hg15 mi
7:00 PM77 °FPassing clouds.12 mph57%30.07 "Hg15 mi
6:00 PM77 °FPassing clouds.13 mph57%30.07 "Hg15 mi
5:00 PM79 °FScattered clouds.12 mph54%30.07 "Hg15 mi
Weather by CustomWeather, © 2016

See weather overviewHow to use our weather pages